Weather in Chulpan

Russia / Samara Oblast     54°01′20″N   52°01′39″E
temp.,
°C
wind,
m/s
gust,
m/s
humid.,
%
clouds,
%
prec.,
mm/h
press.,
hPa
HPBL,
m
27 july, tue
tue2701:00+16wsw125030 0.0 102014
04:00+14wsw22596 0.0 101913
07:00+17w36594 0.0 1019221
10:00+23w57445 0.0 10171364
13:00+25wnw583625 0.0 10162336
16:00+26nw893397 0.1 10152815
19:00+22nw574844 0.1 10151015
22:00+15nw22816 0.4 101514
28 july, wed
wed2801:00+14nw22865 0.0 101513
04:00+12nw22900 0.0 101521
07:00+14n35772 0.0 1016213
10:00+20n57381 0.0 10161505
13:00+23nnw56265 0.0 10152057
16:00+24nnw56232 0.0 10142380
19:00+22nnw45275 0.0 1014871
22:00+14nne22470 0.0 101514
29 july, thu
thu2901:00+12e00570 0.0 101510
04:00+12s2255100 0.0 101511
07:00+17ssw3440100 0.0 1014162
10:00+24ssw5730100 0.0 1013899
13:00+28wsw5830100 0.0 10102879
16:00+19wnw1275100 0.5 101075
19:00+17sse5108992 1.8 1007290
22:00+17s513905 3.0 1005361
30 july, fri
fri3001:00+17wsw513905 0.2 1004318
04:00+16w51198100 0.2 1005409
07:00+17wnw4892100 0.0 1007526
10:00+18wnw5780100 0.0 1008694
13:00+24nw45515 0.0 10081103
16:00+28wnw473845 0.0 10072364
19:00+25nw3644100 0.0 1008162
22:00+21nw115940 0.0 100911
31 july, sat
sat3101:00+21wsw115761 0.0 100911
04:00+20wsw116062 0.0 100911
07:00+23sw115141 0.0 1010143
10:00+29sw34379 0.0 10101605
13:00+30sw653226 0.0 10092192
16:00+29wsw6635100 0.0 10081677
19:00+28s474135 0.0 1008641
22:00+23s225853 0.0 100826